DECAYED
Showing default

SPACEBEE-7, 43816 (Decayed)

Orbit data source: Space-Track

SPACEBEE-7, 43816 was a payload satellite owned by Swarm Tech (US) in LEO that was launched on Mon, 03 Dec 2018 UTC via an FALCON 9 launch vehicle from the Air Force Western Test Range (AFWTR). Payload-class satellites include a variety of spacecraft equipped with specific instruments for various scientific and technological missions. These include communications satellites like Starlink; space stations such as the ISS; scientific satellites like the Hubble; Earth observation satellites from companies like Planet Labs, Umbra, and HawkEye 360; GPS; miniature CubeSats for education and research; and military/defense satellites.

Not visible in the next 10 days
Identifier
43816, 2018-099BL
Orbit
Decayed
Country
Flag of USUS
Related business
Manufacturer
Swarm Tech
Mission
Decayed Commercial Communications
Bus & Motor
CUBESAT 1U, Unknown motor
Mass
1 kg wet, 1 kg dry
Launch date (UTC)
2018-12-03 (8 years ago)
Launch vehicle
FALCON 9
Launch site
Air Force Western Test Range (AFWTR)
Object type
Payload
Rocket body
Debris
Shape & HBR
Box, 1.0 m
Radar Cross Section
0.017 m², Medium (>0.1 m² and < 1m²)

Expand to show TLE details & history
Last TLE update: 6 months ago

TLE from 6 months ago
0 SPACEBEE-7
1 43816U 18099BL  26066.90447833  .08616019  25186-5  14564-2 0  9997
2 43816  97.4255 153.9215 0011063 275.5926  84.4108 16.33037823398932
Epoch: 2026-03-07T21:42Z
TLE epoch observation values (Epoch: 2026-03-07T21:42:26.927Z)
Latitude
-0.00003°
Longitude
22.68987°
Altitude
186.931 km
Speed
7.794 km/s
True Right ascension
10h 15m 41s
True Declination
0° 00' 00"
Sunlit
Object was in full shadow at epoch
Visualization orbit readout
Latitude
Unknown
Longitude
Unknown
Altitude
Unknown
Speed
Unknown
Apparent Right ascension
Unknown
Apparent Declination
Unknown
Sunlit
N/A
Visualization observer readout
Local Sidereal Time
05:48:06
Azimuth
Unknown
Elevation
Unknown
Doppler factor
Unknown
Orbital elements
Apogee altitude
188.463 km
Perigee altitude
173.95 km
Semi-major axis
6,559.343 km
Eccentricity
0.00111
Inclination
97.4255°
RAAN
153.9215°
Arg. of periapsis
275.5926°
True anomaly
84.53699°
Mean anomaly
84.4108°
Eccentric anomaly
84.47389°
Mean motion
4.08557 °/min
Orbital period
88.12 mins
BSTAR
0.0014564
Loading maneuver chart data...
Computing Atmospheric mass density...
Loading historical data...
Loading historical data...
Loading historical data...
Loading historical data...
Loading historical data...
Loading historical data...
Loading historical data...

Documentation

Showing up to 5 results
|